Regional Weather Roundup
Issued by NWS

Home | Current Version | Previous Version | Text Only | Print | Product List | Glossary Off
Versions: 1 2 3 4 5 6 7 8 9 10 11 12 13 14 15 16 17 18 19 20 21 22 23 24 25 26 27 28 29 30 31 32 33 34 35 36 37 38 39 40 41 42 43 44 45 46 47 48 49 50

000
ASUS45 KPSR 261600
RWRAZ

PRELIMINARY ARIZONA REGIONAL HOURLY WEATHER ROUNDUP
NATIONAL WEATHER SERVICE PHOENIX AZ
900 AM MST FRI DEC 26 2014

NOTE: FAIR INDICATES FEW OR NO CLOUDS BELOW 12,000 FEET WITH NO
SIGNIFICANT WEATHER AND/OR OBSTRUCTIONS TO VISIBILITY.

AZZ001>003-036-261700-
NORTHWEST ARIZONA

CITY           SKY/WX    TMP DP  RH WIND       PRES   REMARKS
KINGMAN        SUNNY     34  15  46 NE5       30.01R WCI  30
$$

AZZ004>008-015-016-018-261700-
NORTH CENTRAL ARIZONA

CITY           SKY/WX    TMP DP  RH WIND       PRES   REMARKS
GRAND CANYON   SUNNY     20  16  84 VRB5      29.85R WCI  13
PRESCOTT       SUNNY     27  14  58 CALM      29.93R
FLAGSTAFF      NOT AVBL
PAGE           MOSUNNY   33  11  39 W6        29.86R WCI  28
$$

AZZ009>014-017-261700-
NORTHEAST ARIZONA

CITY           SKY/WX    TMP DP  RH WIND       PRES   REMARKS
WINSLOW        NOT AVBL
SAINT JOHNS    SUNNY     24  14  65 W9        29.86R WCI  14
WINDOW ROCK    MOSUNNY   17  11  77 SW6       29.79R WCI   9
$$

AZZ023-261700-
GREATER PHOENIX AREA

CITY           SKY/WX    TMP DP  RH WIND       PRES   REMARKS
PHOENIX        SUNNY     43  19  38 CALM      30.00R
GLENDALE       SUNNY     39  21  48 NW3       30.03R
LUKE AFB       SUNNY     38  20  49 CALM      30.01R
DEER VALLEY    SUNNY     39  20  46 CALM      29.99R
SCOTTSDALE     SUNNY     40  20  44 CALM      30.01R
MESA-GATEWAY   SUNNY     34  23  64 E6        30.02R WCI  29
CHANDLER       SUNNY     37  25  60 CALM      30.01R
$$

AZZ027-028-261700-
SOUTHWEST MARICOPA COUNTY AND PINAL COUNTY

CITY           SKY/WX    TMP DP  RH WIND       PRES   REMARKS
CASA GRANDE    SUNNY     43  16  33 CALM      30.01R
$$

AZZ503-504-507>509-261700-
SOUTHEAST ARIZONA

CITY           SKY/WX    TMP DP  RH WIND       PRES   REMARKS
TUCSON         SUNNY     41  27  57 S3        30.01R
DAVIS-MONTHAN  SUNNY     42  28  57 S3        29.99R
RYAN FIELD       N/A     45  30  57 CALM      30.01R
NOGALES        PTSUNNY   39  34  82 CALM      29.98R
SIERRA VISTA   PTSUNNY   36  20  52 W7        29.96R WCI  30
SAFFORD        SUNNY     40  16  37 NW9       29.94R WCI  34
$$

AZZ020-021-025-026-031-261700-
SOUTHWEST ARIZONA

CITY           SKY/WX    TMP DP  RH WIND       PRES   REMARKS
YUMA           SUNNY    N/A N/A N/A CALM      30.07R
$$

CAZ031-033-041-043-047-048-061-261700-
SOUTHERN CALIFORNIA

CITY           SKY/WX    TMP DP  RH WIND       PRES   REMARKS
DOWNTOWN L.A.  SUNNY     44  25  47 CALM      30.05R
L.A. AIRPORT   SUNNY     47  24  40 CALM      30.06R
SAN DIEGO      SUNNY     51  22  31 CALM      30.06R
BURBANK        SUNNY     52  10  18 NW7       30.04R
ONTARIO        SUNNY     51  12  21 NE22G33   30.04R
RIVERSIDE      SUNNY     51  12  21 N7        30.07R
PALM SPRINGS   SUNNY     54  10  17 NW7       30.12R
EL CENTRO NAS  SUNNY     44  23  43 S3        30.09R
IMPERIAL       SUNNY     42  27  55 W6        30.08R
BLYTHE         SUNNY     46  19  34 NE7       30.06R
$$

NVZ020-UTZ003-261700-
SOUTHERN NEVADA-UTAH

CITY           SKY/WX    TMP DP  RH WIND       PRES   REMARKS
LAS VEGAS      NOT AVBL
SALT LAKE CITY MOCLDY    25  21  85 CALM      29.97R
$$

NMZ009-TXZ055-261700-
NEW MEXICO-WEST TEXAS

CITY           SKY/WX    TMP DP  RH WIND       PRES   REMARKS
ALBUQUERQUE    PTSUNNY   28  27  96 SW9       29.84R WCI  19
EL PASO        LGT RAIN  38  33  82 W6        29.94R WCI  33
$$


........................KEY........................
SKY/WX - SKY CONDITION/WEATHER
TMP    - TEMPERATURE IN FAHRENHEIT
DP     - DEW POINT IN FAHRENHEIT
RH     - RELATIVE HUMIDITY IN PERCENT
WIND   - DIRECTION AND SPEED IN MILES PER HOUR (MPH)
VRB    - VARIABLE WIND DIRECTION
PRES   - MEAN SEA LEVEL PRESSURE IN INCHES OF MERCURY
         F - FALLING PRESSURE   R - RISING PRESSURE
         S - STEADY PRESSURE
VSB    - VISIBILITY IN MILES
HX     - HEAT INDEX IN FAHRENHEIT
WCI    - WIND CHILL INDEX IN FAHRENHEIT
TC     - TEMPERATURE IN CELSIUS WHICH IS ALSO KNOWN AS
         TEMPERATURE IN CENTIGRADE
AFB    - AIR FORCE BASE
         LUKE AFB IS LUKE AIR FORCE BASE
         DAVIS-MONTHAN IS DAVIS-MONTHAN AIR FORCE BASE
NAS    - NAVAL AIR STATION
         EL CENTRO NAS IS EL CENTRO NAVAL AIR STATION
N/A    - NOT AVAILABLE



USA.gov is the U.S. government's official web portal to all federal, state and local government web resources and services.